Weather History for Sheboygan, WI

Change the Weather History Date:

Saturday, November 5, 2011

  Actual Average Record
Temperature  
Mean Temperature 40 °F -  
Max Temperature 52 °F 49 °F 73 °F (1975)
Min Temperature 28 °F 34 °F 7 °F (1951)
Degree Days  
Heating Degree Days 26    
Moisture  
Dew Point 36 °F    
Average Humidity 77    
Maximum Humidity 96    
Minimum Humidity 52    
Precipitation  
Precipitation 0.00 in - - ()
Sea Level Pressure  
Sea Level Pressure 30.18 in    
Wind  
Wind Speed 7 mph (SSE)    
Max Wind Speed 21 mph    
Max Gust Speed 28 mph    
Visibility 10 miles    
Events      
Averages and records for this station are not official NWS values.
T = Trace of Precipitation, MM = Missing Value Source: NWS Daily Summary

Daily Weather History Graph

Daily Weather History Graph

Search for Another Location

Airport:

Trip Planner

Search our weather history database for the weather conditions in past years. The results will help you decide how hot, cold, wet, or windy it might be!

Date:

Astronomy

Nov. 05, 2011 Rise Set
Actual Time 7:32 AM CDT 5:37 PM CDT
Civil Twilight 7:02 AM CDT 6:07 PM CDT
Nautical Twilight 6:27 AM CDT 6:41 PM CDT
Astronomical Twilight 5:54 AM CDT 7:14 PM CDT
Moon 3:02 PM CDT (11/5) 2:33 AM CDT (11/5)
Length of Visible Light 11h 05m
Length of Day
10h 04m
Waxing Gibbous, 78% of the Moon is Illuminated
Nov 5
Waxing Gibbous
Nov 10
Full
Nov 18
Last Quarter
Nov 25
New
Dec 2
First Quarter

Hourly Weather History & Observations

Time (CDT) Temp. Windchill Dew Point Humidity Pressure Visibility Wind Dir Wind Speed Gust Speed Precip Events Conditions
12:53 AM 28.0 °F - 27.0 °F 96% 30.30 in 8.0 mi Calm Calm - N/A   Clear
1:53 AM 28.0 °F 24.2 °F 26.1 °F 92% 30.27 in 10.0 mi ESE 3.5 mph - N/A   Clear
2:53 AM 43.0 °F 38.8 °F 37.9 °F 82% 30.27 in 10.0 mi SSE 6.9 mph - N/A   Clear
3:53 AM 44.1 °F 39.5 °F 37.9 °F 79% 30.25 in 10.0 mi SSE 8.1 mph - N/A   Clear
4:53 AM 39.0 °F 34.8 °F 35.1 °F 86% 30.26 in 10.0 mi South 5.8 mph - N/A   Clear
5:53 AM 33.1 °F 30.0 °F 32.0 °F 96% 30.27 in 10.0 mi SW 3.5 mph - N/A   Clear
7:53 AM 33.1 °F 28.7 °F 30.0 °F 89% 30.27 in 10.0 mi SSW 4.6 mph - N/A   Clear
8:53 AM 37.9 °F 31.5 °F 33.1 °F 83% 30.26 in 10.0 mi South 9.2 mph - N/A   Clear
10:53 AM 48.0 °F - 34.0 °F 58% 30.24 in 10.0 mi South 20.7 mph 27.6 mph N/A   Clear
11:53 AM 50.0 °F - 35.1 °F 57% 30.22 in 10.0 mi South 16.1 mph - N/A   Clear
12:53 PM 51.1 °F - 34.0 °F 52% 30.18 in 10.0 mi SSE 11.5 mph - N/A   Clear
2:53 PM 50.0 °F - 37.0 °F 61% 30.13 in 10.0 mi SSE 10.4 mph 20.7 mph N/A   Clear
3:53 PM 48.9 °F - 39.0 °F 69% 30.12 in 10.0 mi SSE 13.8 mph 20.7 mph N/A   Clear
4:53 PM 46.9 °F - 39.9 °F 77% 30.11 in 10.0 mi SSE 12.7 mph 18.4 mph N/A   Clear
5:53 PM 46.9 °F - 41.0 °F 80% 30.10 in 10.0 mi SSE 8.1 mph - N/A   Clear
6:53 PM 46.9 °F - 39.9 °F 77% 30.10 in 10.0 mi SSE 8.1 mph - N/A   Clear
8:53 PM 46.9 °F - 39.0 °F 74% 30.07 in 10.0 mi South 8.1 mph - N/A   Clear
9:53 PM 48.0 °F - 39.9 °F 74% 30.06 in 10.0 mi South 9.2 mph 17.3 mph N/A   Clear
10:53 PM 48.9 °F - 41.0 °F 74% 30.04 in 10.0 mi South 13.8 mph - N/A   Clear
11:53 PM 48.0 °F - 39.9 °F 74% 30.02 in 10.0 mi South 16.1 mph 21.9 mph N/A   Clear